sat.trackr.live / text

‹ back to catalog

STARLINK-31207

NORAD 59035 · 2024-038N

PAYLOAD ACTIVE UNKNOWN

§ Identity

Operator
Country
US
Launch date
2024-02-25
Launch site
AFETR
Launch vehicle
Mass (kg)
RCS (m²)

Purposes: comms

External: N2YO · Heavens-Above · Gunter

§ Orbital elements

Epoch: 2026-05-25T03:50:33.066816Z

Period
94.27 min
Inclination
42.9997°
Eccentricity
0.0000769
Mean motion
15.27580112 rev/d
Perigee alt
482.5 km
Apogee alt
483.6 km
Semi-major
6,861.2 km
B*
7.2849e-5
RAAN
311.6801°
Arg perigee
281.4967°
Mean anomaly
78.5798°
Rev number
12,655

§ Raw data

STARLINK-312071 59035U 24038N   26145.16010494  .00001743  00000+0  72849-4 0  99902 59035  42.9997 311.6801 0000769 281.4967  78.5798 15.27580112126558

JSON: /api/v1/satellites/59035 · /tle

For live sub-satellite position, see the globe view (requires WebGL).

§ Visibility from observer

Set your observer location to see the next 7 days of passes ≥ 10°. The values pass through the URL so the page stays shareable.

No JS? Fill the form by hand. The geolocation button needs JavaScript.